Regional Weather Roundup
Issued by NWS

Home | Current Version | Previous Version | Graphics & Text | Print | Product List | Glossary On
Versions: 1 2 3 4 5 6 7 8 9 10 11 12 13 14 15 16 17 18 19 20 21 22 23 24 25 26 27 28 29 30 31 32 33 34 35 36 37 38 39 40 41 42 43 44 45 46 47 48 49 50
000
ASUS43 KFSD 101910
RWRSD

WEATHER ROUNDUP FOR SOUTH DAKOTA
NATIONAL WEATHER SERVICE SIOUX FALLS SD
100 PM CST SAT DEC 10 2016

NOTE: "FAIR" INDICATES FEW OR NO CLOUDS BELOW 12,000 FEET WITH NO
SIGNIFICANT WEATHER AND/OR OBSTRUCTIONS TO VISIBILITY.


SDZ001>005-009-010-012>017-102000-
NORTHWEST AND NORTH CENTRAL SOUTH DAKOTA

CITY           SKY/WX    TMP DP  RH WIND       PRES   REMARKS
BUFFALO          N/A      4  -2  76 SE15      29.81F WCI -14
FAITH            N/A      2  -1  88 E13       29.98F WCI -15
MOBRIDGE       LGT SNOW   2  -6  69 E13       30.10F WCI -15
$$

SDZ012>016-024>037-041>051-057-063-072>074-102000-
SOUTHWEST AND SOUTH CENTRAL SOUTH DAKOTA

CITY           SKY/WX    TMP DP  RH WIND       PRES   REMARKS
RAPID CTY ARPT CLOUDY     5   1  83 SE9       29.84F WCI  -9
PIERRE         FLURRIES   6   1  80 E14       30.05F WCI -11
CUSTER         CLOUDY    37  24  59 W13G20    29.66F
ELLSWORTH AFB  CLOUDY     6   2  81 SE9       29.82  WCI  -8
PHILIP         FLURRIES   5   1  83 E12       29.98F WCI -11
PINE RIDGE     CLOUDY    17  11  77 NE6       29.82F WCI   9
SPEARFISH      FAIR       7   1  78 CALM      29.77F
WINNER         CLOUDY    14  10  84 E12       29.99F WCI   0
$$

SDZ004>011-016>023-039-040-102000-
NORTHEAST SOUTH DAKOTA

CITY           SKY/WX    TMP DP  RH WIND       PRES   REMARKS
ABERDEEN       LGT SNOW   5  -3  69 NE10      30.24F WCI -10
WATERTOWN      SNOW       2  -2  83 E9        30.21F VSB 1/2 WCI -13
BROOKINGS      LGT SNOW   9   3  78 E15       30.20F VSB 1   WCI  -8
SISSETON         N/A      1  -5  75 SE6       30.31F WCI -10
$$

SDZ017-020-022-023-036>040-048>070-102000-
SOUTHEAST SOUTH DAKOTA

CITY           SKY/WX    TMP DP  RH WIND       PRES   REMARKS
SIOUX FALLS    LGT SNOW  14  10  84 E14       30.21F FOG     WCI  -1
HURON          LGT SNOW  11   7  84 E14       30.17F VSB 3/4 WCI  -5
CHAMBERLAIN    LGT SNOW  13  10  87 E12G21    30.04F WCI   0
MITCHELL       CLOUDY    15  11  83 SE17      30.16F WCI  -1
YANKTON        CLOUDY    21  16  79 E13G21    30.15F WCI   9
$$

ABBREVIATIONS USED IN REMARKS
   TC - TEMPERATURE IN CELSIUS
  WCI - WIND CHILL INDEX
   HX - HEAT INDEX
  VSB - VISIBILITY




USA.gov is the U.S. government's official web portal to all federal, state and local government web resources and services.